Zurück zum Katalog

KUIPER-00015

AktivKommunikationLEO
NORAD 63731·PAYLOAD·🇺🇸 United States

Gestartet Apr 28, 2025 von Cape Canaveral Space Force Station

Loading…

Nächste Überflüge (nächste 24 Stunden)

TLE

AktuellSource: CelesTrak SupGP

Epoche: Sep 15, 2026, 01:33 UTC

1 63731C 25088H   26258.06498843  .00001540  00000+0  20158-3 0  2584
2 63731  51.9000   0.6942 0000318 112.9413 287.9369 14.79930932    13

Verfolge KUIPER-00015 in Echtzeit mit AllMySat

Download on the App Store